SR2CPA-13 Weather Reports


Display with metric or nautical units.
time (UTC)temp
F
wind
direction
speed
MPH
gust
MPH
rain 1hr
in
rain 24hr
in
rain mn
in
humidity
%
barometer
mb
20260504081515 71 0 0.0 0.0 0.00 0.00 0.00 52
20260504080455 70 250 0.0 1.0 0.00 0.00 0.00 53
20260504050155 57 253 3.0 5.0 0.00 0.00 0.00 67
20260504045155 57 254 3.0 4.0 0.00 0.00 0.00 68
20260504044155 56 272 4.0 4.0 0.00 0.00 0.00 70
20260504043135 56 244 3.0 3.0 0.00 0.00 0.00 68
20260504042135 55 253 2.0 2.0 0.00 0.00 0.00 70
20260504041115 54 0 0.0 0.0 0.00 0.00 0.00 72
20260504040115 52 0 0.0 0.0 0.00 0.00 0.00 74
20260504035055 53 276 0.0 0.0 0.00 0.00 0.00 71
20260504034054 54 245 1.0 2.0 0.00 0.00 0.00 68
20260504033034 54 253 1.0 2.0 0.00 0.00 0.00 69
20260504032034 53 232 1.0 2.0 0.00 0.00 0.00 69
20260504031034 53 240 1.0 2.0 0.00 0.00 0.00 69
20260504030034 55 265 1.0 1.0 0.00 0.00 0.00 66
20260504025034 54 250 2.0 2.0 0.00 0.00 0.00 66
20260504024034 54 261 0.0 1.0 0.00 0.00 0.00 65
20260504023014 55 252 1.0 1.0 0.00 0.00 0.00 64
20260504022016 55 259 0.0 2.0 0.00 0.00 0.00 63
20260504021014 55 262 0.0 1.0 0.00 0.00 0.00 64
20260504015954 55 253 0.0 1.0 0.00 0.00 0.00 63
20260504014954 55 259 0.0 1.0 0.00 0.00 0.00 62
20260504013934 56 0 0.0 0.0 0.00 0.00 0.00 61
20260504012934 56 267 0.0 1.0 0.00 0.00 0.00 60
20260504011934 57 266 0.0 0.0 0.00 0.00 0.00 60
20260504010934 57 252 0.0 0.0 0.00 0.00 0.00 58
20260504005934 58 254 0.0 1.0 0.00 0.00 0.00 57
20260504004934 59 256 1.0 2.0 0.00 0.00 0.00 55
20260504003914 59 271 2.0 3.0 0.00 0.00 0.00 54
20260504002914 59 250 2.0 2.0 0.00 0.00 0.00 54
20260504001854 59 243 1.0 2.0 0.00 0.00 0.00 54
20260504000854 59 236 1.0 2.0 0.00 0.00 0.00 54
20260503235834 58 263 1.0 1.0 0.00 0.00 0.00 54
20260503234834 58 262 1.0 1.0 0.00 0.00 0.00 54
20260503233814 58 261 1.0 2.0 0.00 0.00 0.00 53
20260503232814 58 0 0.0 0.0 0.00 0.00 0.00 52
20260503231814 58 0 0.0 0.0 0.00 0.00 0.00 55
20260503231514 59 0 0.0 0.0 0.00 0.00 0.00 53
20260503230514 59 244 1.0 1.0 0.00 0.00 0.00 51
20260503225514 58 252 0.0 0.0 0.00 0.00 0.00 52
20260503224514 58 0 0.0 0.0 0.00 0.00 0.00 55
20260503223454 58 260 1.0 0.0 0.00 0.00 0.00 54
20260503222454 58 0 0.0 0.0 0.00 0.00 0.00 56
20260503221454 57 0 0.0 0.0 0.00 0.00 0.00 57
20260503220454 57 0 0.0 0.0 0.00 0.00 0.00 56
20260503215454 58 0 0.0 0.0 0.00 0.00 0.00 55
20260503214454 59 0 0.0 0.0 0.00 0.00 0.00 55
20260503213434 58 241 1.0 1.0 0.00 0.00 0.00 53
20260503212434 59 0 0.0 0.0 0.00 0.00 0.00 55
20260503211434 59 0 0.0 0.0 0.00 0.00 0.00 53
20260503210414 60 0 0.0 0.0 0.00 0.00 0.00 52
20260503205414 61 0 0.0 0.0 0.00 0.00 0.00 51
20260503204354 62 0 0.0 0.0 0.00 0.00 0.00 47
20260503203354 62 0 0.0 0.0 0.00 0.00 0.00 48
20260503202334 62 0 0.0 0.0 0.00 0.00 0.00 47
20260503201334 63 0 0.0 0.0 0.00 0.00 0.00 46
20260503200334 64 0 0.0 0.0 0.00 0.00 0.00 45
20260503195334 64 0 0.0 0.0 0.00 0.00 0.00 45
20260503194334 65 0 0.0 0.0 0.00 0.00 0.00 44
20260503193314 66 249 1.0 1.0 0.00 0.00 0.00 42
20260503192314 66 263 0.0 0.0 0.00 0.00 0.00 44
20260503191314 66 263 1.0 1.0 0.00 0.00 0.00 43
20260503190314 66 0 0.0 0.0 0.00 0.00 0.00 42
20260503185254 68 263 0.0 1.0 0.00 0.00 0.00 42
20260503184234 68 0 0.0 0.0 0.00 0.00 0.00 41
20260503183234 69 254 0.0 1.0 0.00 0.00 0.00 40
20260503182214 69 243 1.0 1.0 0.00 0.00 0.00 39
20260503181214 71 247 2.0 2.0 0.00 0.00 0.00 38
20260503180214 73 251 3.0 4.0 0.00 0.00 0.00 37
20260503175214 73 221 2.0 3.0 0.00 0.00 0.00 37
20260503174214 73 233 2.0 2.0 0.00 0.00 0.00 37
20260503173154 74 259 1.0 2.0 0.00 0.00 0.00 36
20260503172154 74 256 1.0 1.0 0.00 0.00 0.00 35
20260503171154 75 264 1.0 1.0 0.00 0.00 0.00 35
20260503170154 76 233 2.0 2.0 0.00 0.00 0.00 35
20260503160113 81 249 4.0 7.0 0.00 0.00 0.00 30
20260503151013 81 214 7.0 9.0 0.00 0.00 0.00 26
20260503130913 81 254 8.0 9.0 0.00 0.00 0.00 26
20260503110653 80 241 7.0 10.0 0.00 0.00 0.00 30
20260503090453 75 227 3.0 5.0 0.00 0.00 0.00 37